Location: �mondeville
(49.4591°N, 1.3431°W)
Time: 03:12:40
(UTC+00:00)

Meteor 1-4 Rocket - Pass Details

Date: 22 October 2019
Orbit: 450 x 503 km, 81.2° (Epoch: 16 November)

Event Time Altitude Azimuth Distance (km) Brightness Sun altitude
Exits shadow 05:50:40 11° 274° (W) 1,534 4.4 -8.2°
Maximum altitude 05:51:56 13° 297° (WNW) 1,434 4.4 -8.0°
Drops below altitude 10° 05:53:33 10° 325° (NW) 1,596 4.8 -7.7°
Sets 05:56:38 0° 355° (N) 2,473 6.0 -7.2°
